www.pogodaiklimat.ru

Погода и климат >> Архив погоды >> Индонезия >> Танах Мерах


ПОГОДА в Танах Мерах

  • Прогноз погоды в Танах Мерах
  • Монитор погоды в Танах Мерах

АРХИВ ПОГОДЫ в Танах Мерах

Время (UTC), дата Ветер
(напр.,м/с)
 
Видим.   Явления Облачность Т
(С)
Тd
(С)
f
(%)
Тe
(С)
Тes
(С)
Комфортность P
(гПа)
Po
(гПа)
Тmin
(С)
Tmax
(С)
R
(мм)
R24
(мм)
S
(см)
00 9.09 штиль 0 7000 м 9/8 240 м
[Sc Ac trans Ci fib]
+28.6 +19.6 58 +34 +37 очень
душно
1009.0 1006.9 +25.6
03 9.09 В 3 10 км 6/6 270 м
[Cu Sc Ac lent Ci sp]
+29.9 +21.4 60 +38 +45 очень
душно
1011.6 1008.4
06 9.09 Ю 2 10 км 5/4 300 м
[Cu Sc Ac trans Ci sp]
+32.9 +19.3 45 +38 +44 очень
душно
1009.6 1006.5
09 9.09 штиль 0 10 км 4/3 330 м
[Sc Ac trans Ci fib]
+28.2 +22.4 71 +37 +37 очень
душно
1012.4 1010.2
12 9.09 штиль 0 7000 м 6/5 300 м
[Sc Ac trans Ci fib]
+25.2 +23.2 89 +34 +34 очень
душно
1014.2 1012.2 +32.2
15 9.09 штиль 0 7000 м 6/4 360 м
[Sc Ac trans Ci fib]
+23.1 +19.8 82 +30 +30 очень
душно
1012.8 1009.6
18 9.09 штиль 0 7000 м 8/5 300 м
[Sc Ac trans Ci sp]
+21.7 +19.8 89 +27 +27 душно 1012.5 1009.3
21 9.09 штиль 0 8000 м 6/4 300 м
[Sc Ac trans Ci sp]
+20.5 +19.3 93 +24 +24 комфорт 1013.6 1010.4
00 10.09 ЮВ 4 8000 м 9/6 270 м
[Cu Sc Ac trans Ci sp]
+24.5 +19.8 75 +30 +32 очень
душно
1015.2 1012.0 +20.5
03 10.09 ЮВ 3 10 км 6/5 300 м
[Cu Sc Ac trans Ci fib]
+29.8 +18.4 50 +35 +42 очень
душно
1012.8 1009.6
06 10.09 В 3 10 км 5/4 330 м
[Cu Sc Ac trans Ci fib]
+31.2 +15.8 39 +34 +38 душно 1010.8 1007.5
09 10.09 штиль 0 7000 м 6/5 300 м
[Sc Ac und Ci sp]
+28.5 +17.8 52 +33 +33 очень
душно
1012.4 1010.2
12 10.09 штиль 0 7000 м 8/5 270 м
[Sc Ac und Ci sp]
+26.2 +20.3 70 +32 +32 очень
душно
1014.1 1012.2 +31.8
15 10.09 штиль 0 7000 м 9/6 270 м
[Sc Ac lent Ci sp]
+22.8 +18.2 75 +28 +28 душно 1013.3 1010.1
18 10.09 штиль 0 8000 м 9/8 240 м
[Sc Ac lent Ci sp]
+21.6 +17.8 79 +26 +26 душно 1013.2 1010.0
00 11.09 штиль 0 8000 м 9/8 240 м
[Sc Ac lent Ci sp]
+24.6 +18.5 69 +29 +32 душно 1016.7 1013.5 +24.3
03 11.09 В 4 7000 м 9/6 270 м
[Cu Sc Ac lent Ci sp]
+27.2 +19.4 62 +33 +36 очень
душно
1014.1 1010.9
06 11.09 В 3 7000 м {дождь} 9/6 270 м
[Cu Sc Ac lent Ci sp]
+26.0 +19.2 66 +31 +33 очень
душно
1012.7 1009.5 0.0
09 11.09 В 3 6000 м 9/6 270 м
[Cu Sc Ac lent Ci sp]
+24.4 +19.7 75 +30 +30 очень
душно
1014.5 1011.3
12 11.09 В 4 6000 м 9/6 270 м
[Sc Ac As Ci sp]
+23.3 +20.2 83 +31 +31 очень
душно
1016.6 1013.4 +27.5
15 11.09 штиль 0 6000 м 10/8 270 м
[Sc Ac As Ci sp]
+22.4 +20.6 90 +29 +29 очень
душно
1015.1 1011.9
18 11.09 штиль 0 6000 м 10/8 240 м
[Sc Ac As Ci sp]
+21.9 +20.9 94 +28 +28 душно 1013.9 1010.7
21 11.09 штиль 0 8000 м 10/8 240 м
[Sc Ac cuf Ci sp]
+21.8 +21.3 97 +28 +28 душно 1015.5 1012.3
00 12.09 В 3 8000 м 10/8 240 м
[Sc Ac cuf Ci sp]
+23.5 +21.0 86 +30 +31 очень
душно
1016.7 1013.8 +21.5
03 12.09 штиль 0 8000 м 10/8 270 м
[Sc Ac lent Ci sp]
+25.2 +19.8 72 +31 +34 очень
душно
1014.7 1011.5
06 12.09 штиль 0 8000 м 10/8 240 м
[Sc Ac lent Ci sp]
+25.9 +20.0 70 +32 +33 очень
душно
1012.8 1009.6
09 12.09 СВ 1 6000 м 9/6 240 м
[Sc Ac lent Ci sp]
+24.2 +23.4 95 +32 +32 очень
душно
1014.6 1011.4
12 12.09 штиль 0 3000 м в посл. час дождь 9/8 240 м
[Sc Ac As Ci sp]
+23.2 +22.5 96 +32 +32 очень
душно
1016.2 1014.2 +26.8 0.0
15 12.09 штиль 0 6000 м 9/6 270 м
[Sc Ac cuf Ci sp]
+22.5 +21.9 96 +30 +30 очень
душно
1014.6 1011.4
18 12.09 штиль 0 6000 м 10/8 240 м
[Sc Ac cuf Ci sp]
+22.0 +21.7 98 +29 +29 очень
душно
1013.8 1010.6
21 12.09 штиль 0 8000 м 10/8 240 м
[Sc Ac cuf Ci sp]
+21.6 +21.0 96 +27 +27 душно 1015.3 1012.1
00 13.09 В 4 6000 м 9/6 270 м
[Cu Sc Ac lent Ci sp]
+24.5 +20.5 78 +30 +32 очень
душно
1016.2 1013.0 +21.6 0.0
03 13.09 ЮВ 3 6000 м 9/6 270 м
[Cu Sc Ac lent Ci sp]
+26.6 +20.0 67 +33 +37 очень
душно
1013.3 1010.1
06 13.09 Ю 2 6000 м 9/6 270 м
[Cu Sc Ac lent Ci sp]
+26.3 +21.0 73 +33 +35 очень
душно
1011.8 1008.6
09 13.09 штиль 0 8000 м 9/8 240 м
[Sc Ac lent Ci sp]
+26.0 +21.5 76 +33 +33 очень
душно
1013.3 1010.1
12 13.09 штиль 0 6000 м в посл. час дождь 10/8 240 м
[Sc Ac lent Ci sp]
+23.8 +22.8 94 +31 +31 очень
душно
1015.4 1012.2 2
15 13.09 штиль 0 8000 м 10/8 240 м
[Sc Ac cuf Ci sp]
+23.2 +22.1 94 +32 +32 очень
душно
1014.7 1011.5
18 13.09 ЮВ 1 8000 м 10/8 240 м
[Sc Ac cuf Ci sp]
+22.7 +21.6 94 +30 +30 очень
душно
1013.9 1010.7
21 13.09 ЮВ 1 8000 м 9/8 240 м
[Sc Ac cuf Ci sp]
+22.6 +22.2 98 +30 +30 очень
душно
1015.8 1012.6
00 14.09 штиль 0 6000 м 9/8 240 м
[Sc Ac lent Ci sp]
+24.9 +20.5 77 +31 +34 очень
душно
1015.5 1012.3 +23.8 2
03 14.09 штиль 0 8000 м 9/8 240 м
[Sc Ac lent Ci sp]
+26.6 +20.3 68 +33 +37 очень
душно
1013.1 1009.9
06 14.09 штиль 0 6000 м 9/8 240 м
[Sc Ac lent Ci sp]
+27.8 +21.0 67 +35 +37 очень
душно
1011.3 1008.1
09 14.09 штиль 0 8000 м 9/9 270 м
[]
+26.7 +22.8 79 +35 +35 очень
душно
1012.8 1009.6
12 14.09 штиль 0 6000 м 8/6 270 м
[Sc Ac As Ci sp]
+26.2 +24.3 89 +36 +36 очень
душно
1015.4 1013.2 +28.4
15 14.09 штиль 0 6000 м 9/5 270 м
[Sc Ac lent Ci sp]
+24.3 +22.4 89 +32 +32 очень
душно
1014.3 1011.1
18 14.09 штиль 0 6000 м 9/5 270 м
[Sc Ac lent Ci sp]
+23.4 +21.7 90 +32 +32 очень
душно
1013.4 1010.2
21 14.09 штиль 0 6000 м 9/5 270 м
[Sc Ac lent Ci sp]
+22.9 +21.5 92 +31 +31 очень
душно
1014.7 1011.5
00 15.09 В 2 6000 м 9/8 240 м
[Sc Ac As Ci sp]
+25.0 +23.2 90 +33 +35 очень
душно
1015.6 1012.4 +23.2
03 15.09 В 4 7000 м 9/8 240 м
[Sc Ac lent Ci sp]
+27.0 +22.3 75 +35 +38 очень
душно
1013.0 1009.9
06 15.09 Ю 2 7000 м 9/6 240 м
[Sc Ac As Ci sp]
+27.4 +23.4 79 +37 +39 очень
душно
1011.8 1008.6
09 15.09 штиль 0 8000 м 9/8 240 м
[Sc Ac cuf Ci sp]
+27.6 +23.2 77 +37 +37 очень
душно
1012.6 1008.4
12 15.09 СВ 3 2000 м слаб. дождь 10/8 240 м
[Sc Ac As Ci sp]
+25.2 +23.2 89 +34 +34 очень
душно
1014.2 1011.0 +29.2 0.2
15 15.09 штиль 0 6000 м 9/8 240 м
[Sc Ac lent Ci sp]
+24.2 +23.4 95 +32 +32 очень
душно
1013.3 1010.1 0.2
18 15.09 штиль 0 6000 м 10/8 240 м
[Sc Ac As Ci sp]
+23.6 +21.8 90 +30 +30 очень
душно
1013.0 1009.8

 

Местоположение метеостанции Танах Мерах (Индонезия): широта -6.10 долгота 140.30 высота над уровнем моря 16 м.

В архиве по умолчанию представлена погода в Танах Мерах за последнюю неделю. Архивные данные за месяц целиком и за предыдущие месяцы, начиная с января 2011 года, Вы можете получить, выбрав интересующий диапазон дат из раскрывающегося списка и нажав кнопку "Ввод!".


*Определитесь, кто Вы:
робот инопланетянин человек

Внимание! Время в таблицах - всемирное. Для получения местного времени необходимо прибавить поправку, которая равна 9 ч.

Смотрите также архив погоды в соседних городах и на ближайших метеорологических станциях:

Погода в Мерауке (Индонезия) (264 км)
Погода в Вамене (Индонезия) (271 км)
Погода в Коконао (Индонезия) (338 км)
Погода в Сентани (Индонезия) (392 км)
Погода в Джаяпуре (Индонезия) (393 км)
Погода в Энаротали (Индонезия) (498 км)
Погода в Сарми (Индонезия) (507 км)
Погода на Острове Коконат (Квинсленд, Австралия) (535 км)
Погода на Острове Хорн (Квинсленд, Австралия) (544 км)
Погода в Набире (Индонезия) (615 км)

Пояснения к столбцам:

Ветер - указаны скорость ветра в м/с - средняя за 10 мин, порывы в срок и между сроками (в фигурных скобках) и направление, откуда дует ветер: С - северный, СВ - северо-восточный, В - восточный, ЮВ - юго-восточный, Ю - южный, ЮЗ - юго-западный, З - западный, СЗ - северо-западный.
Видимость - горизонтальная дальность видимости в метрах или километрах. При видимости от 1 до 10 км при отсутствии осадков обычно наблюдается дымка, при ухудшении видимости до 1 км и менее - туман. В сухую погоду видимость может ухудшаться дымом, пылью или мглою.
Явления - указаны атмосферные явления, наблюдавшиеся в срок или в последний час перед сроком; фигурными скобками обозначены явления, наблюдавшиеся между сроками (за 1-3 часа до срока); квадратными скобками обозначены град или гололедные отложения с указанием их диаметра в мм.
Облачность - указаны через наклонную черту общая и нижняя облачность в баллах и высота нижней границы облаков в метрах; квадратными скобками обозначены формы облаков: Ci - перистые, Cs - перисто-слоистые, Cc - перисто-кучевые, Ac - высококучевые, As - высокослоистые, Sc - слоисто-кучевые, Ns - слоисто-дождевые, Cu - кучевые, Cb - кучево-дождевые. Подробнее классификацию облаков см. в Атласе облаков (PDF).
T - Температура воздуха - температура, измеренная на высоте 2 м над землей.
Td - Температура точки росы - температура, при понижении до которой содержащийся в воздухе водяной пар достигнет насыщения.
f - Относительная влажность воздуха - влажноcть воздуха, измеренная на высоте 2 м над землей.
Te - Эффективная температура - температура, которую ощущает одетый по сезону человек в тени. Характеристика душности погоды. При расчете учитывается влияние влажности воздуха и скорости ветра на теплоощущения человека.
Tes - Эффективная температура на солнце - температура, которую ощущает человек, с поправкой на солнечный нагрев. Характеристика знойности погоды. Зависит от высоты солнца над горизонтом, облачности и скорости ветра. Ночью, в пасмурную погоду, а также при ветре 12 м/с и более поправка равна нулю.
P - Атмосферное давление - приведенное к уровню моря атмосферное давление.
Po - Атмосферное давление - измеренное на уровне метеостанции атмосферное давление.
Tmin - Минимальная температура - минимум температуры воздуха на высоте 2 м над землей.
Tmax - Максимальная температура - максимум температуры воздуха на высоте 2 м над землей.
R - Количество осадков - Количество выпавших осадков за период времени, мм. При наведении курсора мыши на число - период времени, за который выпало указанное количество осадков.
R24 - Количество осадков - Количество выпавших осадков за 24 часа, мм.
S - Снежный покров - Высота снежного покрова, см. При наведении курсора мыши на число - состояние снежного покрова и степень покрытия местности в баллах.